Location: Caltech
(34.1382°N, 118.1253°W)
Time: 08:26:52
(UTC-08:00)

ASTRO E2 - Visible Passes

Search period start: 26 January 2015 00:00
Search period end: 05 February 2015 00:00
Orbit: 529 x 536 km, 31.4° (Epoch: 25 January)

Date Brightness Start Highest point End Pass type
(mag) Time Alt. Az. Time Alt. Az. Time Alt. Az.
28 Jan 5.5 04:53:32 10° S 04:55:07 12° SSE 04:56:49 10° SE visible
29 Jan 5.2 04:41:58 14° SSE 04:42:37 15° SSE 04:45:03 10° ESE visible
29 Jan 3.9 06:19:13 10° SW 06:23:04 40° SSE 06:26:56 10° E visible
30 Jan 5.1 04:30:40 18° SE 04:30:40 18° SE 04:33:02 10° ESE visible
30 Jan 3.7 06:06:42 10° WSW 06:10:37 45° SSE 06:14:34 10° E visible
31 Jan 5.3 04:19:14 18° SE 04:19:14 18° SE 04:20:52 10° ESE visible
31 Jan 3.5 05:54:28 11° WSW 05:58:11 49° S 06:02:09 10° E visible
01 Feb 5.6 04:07:41 15° ESE 04:07:41 15° ESE 04:08:37 10° ESE visible
01 Feb 3.3 05:42:55 18° WSW 05:45:45 53° S 05:49:45 10° E visible
02 Feb 6.0 03:56:04 11° ESE 03:56:04 11° ESE 03:56:19 10° E visible
02 Feb 3.1 05:31:18 27° WSW 05:33:18 56° S 05:37:20 10° E visible
03 Feb 3.0 05:19:37 39° WSW 05:20:52 58° S 05:24:54 10° E visible
04 Feb 2.9 05:07:53 53° SW 05:08:25 59° S 05:12:28 10° E visible
